Home   Weather   Reutlingen   Past weeks

Flag for Germany Past Weather in Reutlingen, Baden-Württemberg, Germany — Yesterday and Last 2 Weeks

Now
19 °F

Passing clouds.


Feels Like: 9 °F
Forecast: 8 / 23 °F
Wind: 8 mph from Northeast

Location: Stuttgart-Echterdingen

Current Time: Jan 19, 2017 at 1:37:58 am

Latest Report: Jan 19, 2017 at 12:50 am


Visibility: N/A

Pressure: 30.48 "Hg

Humidity: 86%

Dew Point: 16 °F

Location of ReutlingenLocation

Past Weather in Reutlingen — Graph

°F

Reutlingen Temperature Yesterday

Maximum temperature yesterday: 28 °F (at 2:50 pm)
Minimum temperature yesterday: 19 °F (at 11:50 pm)
Average temperature yesterday: 24 °F

High & Low Weather Summary for the Past Weeks

 TemperatureHumidityPressure
High43 °F (Jan 13, 12:20 am)100% (Jan 6, 7:50 am)30.66 "Hg (Jan 6, 7:50 am)
Low7 °F (Jan 7, 2:50 am)59% (Jan 6, 1:20 pm)29.33 "Hg (Jan 13, 12:20 am)
Average29 °F83%30.15 "Hg
* Reported Jan 4 12:20 am — Jan 19 12:20 am, Reutlingen, Weather by CustomWeather, © 2017

Note: Actual official high and low records may vary slightly from our data, if they occured in-between our weather recording intervals... More about our weather records

Advertising

Reutlingen Weather History for the Previous 24 Hours

Scroll right to see more
 ConditionsComfort  
Time TempWeatherWind HumidityBarometerVisibility
12:20 am
Thu, Jan 19
19 °FPassing clouds.6 mph79%30.48 "HgN/A
11:50 pm
Wed, Jan 18
19 °FPassing clouds.7 mph79%30.48 "HgN/A
11:20 pm21 °FPassing clouds.8 mph80%30.48 "HgN/A
10:50 pm21 °FPassing clouds.9 mph80%30.48 "HgN/A
10:20 pm23 °FPassing clouds.10 mph74%30.48 "HgN/A
9:50 pm23 °FPassing clouds.12 mph74%30.48 "HgN/A
9:20 pm23 °FPassing clouds.12 mph80%30.48 "HgN/A
8:50 pm25 °FPassing clouds.12 mph69%30.51 "HgN/A
8:20 pm25 °FPassing clouds.10 mph74%30.51 "HgN/A
7:50 pm25 °FPassing clouds.13 mph74%30.51 "HgN/A
7:20 pm25 °FPassing clouds.10 mph74%30.51 "HgN/A
6:50 pm25 °FPassing clouds.9 mph74%30.51 "HgN/A
6:20 pm23 °FPassing clouds.9 mph74%30.51 "HgN/A
5:50 pm23 °FPassing clouds.10 mph74%30.51 "HgN/A
5:20 pm23 °FPassing clouds.12 mph74%30.51 "HgN/A
4:50 pm25 °FScattered clouds.13 mph69%30.51 "HgN/A
4:20 pm25 °FScattered clouds.10 mph69%30.51 "HgN/A
3:50 pm27 °FScattered clouds.14 mph64%30.51 "HgN/A
3:20 pm28 °FScattered clouds.16 mph64%30.51 "HgN/A
2:50 pm28 °FScattered clouds.13 mph64%30.48 "HgN/A
2:20 pm27 °FScattered clouds.12 mph69%30.51 "HgN/A
1:50 pm27 °FScattered clouds.17 mph64%30.51 "HgN/A
1:20 pm27 °FPartly sunny.17 mph64%30.51 "HgN/A
12:50 pm27 °FPartly sunny.17 mph64%30.51 "HgN/A
12:20 pm27 °FPartly sunny.21 mph64%30.51 "HgN/A
11:50 am27 °FPartly sunny.17 mph69%30.51 "HgN/A
11:20 am27 °FPartly sunny.18 mph64%30.51 "HgN/A
10:50 am27 °FPartly sunny.15 mph64%30.51 "HgN/A
10:20 am25 °FPartly sunny.14 mph74%30.51 "HgN/A
9:50 am25 °FPartly sunny.14 mph69%30.51 "HgN/A
9:20 am23 °FPartly sunny.12 mph74%30.51 "HgN/A
8:50 am23 °FScattered clouds.15 mph68%30.51 "HgN/A
8:20 am21 °FPassing clouds.15 mph74%30.51 "HgN/A
7:50 am21 °FPassing clouds.16 mph74%30.48 "HgN/A
7:20 am21 °FPassing clouds.15 mph74%30.48 "HgN/A
6:50 am21 °FPassing clouds.16 mph74%30.48 "HgN/A
6:20 am21 °FPassing clouds.14 mph80%30.48 "HgN/A
5:50 am21 °FClear.13 mph74%30.48 "Hg10 mi
5:20 am21 °FClear.10 mph80%30.48 "Hg10 mi
4:50 am21 °FClear.7 mph80%30.48 "Hg10 mi
4:20 am21 °FClear.7 mph74%30.48 "Hg10 mi
3:50 am23 °FClear.12 mph68%30.48 "Hg10 mi
3:20 am23 °FClear.12 mph74%30.48 "Hg10 mi
2:50 am21 °FClear.10 mph80%30.48 "Hg10 mi
2:20 am21 °FClear.12 mph80%30.48 "Hg10 mi
1:50 am21 °FPassing clouds.9 mph80%30.48 "HgN/A
1:20 am21 °FPassing clouds.8 mph74%30.51 "HgN/A
Weather by CustomWeather, © 2017

See weather overviewHow to use our weather pages